TOM7DE LEMH-EGFF

Flight info

Callsign TOM7DE
Flight time N/A
Altitude 37000
Route SARGO L16 VERSO M601 BCN/N0454F380 DCT CAVES N861 OLOXO DCT OKABI DCT RARAK DCT VELIN DCT MANAK UT183 TIRAV UN490 TERPO UM616 KORER DCT NOZHU DCT TOJAQ
Aircraft B38M/M-SDE1FGHILORVWXY/HB1

Departure

Time 2026-05-07 09:45
Airport Menorca Airport (LEMH)

Arrival

Time N/A
Airport Cardiff International Airport (EGFF)
Time Latitude Longitude Altitude Speed Heading
2026-05-07 09:26 39.86529 4.22426 289 ft 0 kts 99°
2026-05-07 09:37 39.86532 4.22401 294 ft 4 kts 99°
2026-05-07 09:37 39.86536 4.22370 295 ft 3 kts 99°
2026-05-07 09:38 39.86545 4.22342 295 ft 4 kts 149°
2026-05-07 09:38 39.86569 4.22338 293 ft 4 kts 188°
2026-05-07 09:38 39.86578 4.22340 294 ft 0 kts 189°
2026-05-07 09:40 39.86574 4.22339 294 ft 3 kts 189°
2026-05-07 09:41 39.86540 4.22297 296 ft 9 kts 257°
2026-05-07 09:41 39.86544 4.22223 296 ft 7 kts 279°
2026-05-07 09:41 39.86539 4.22178 298 ft 4 kts 240°
2026-05-07 09:41 39.86482 4.22148 298 ft 15 kts 189°
2026-05-07 09:42 39.86353 4.22123 296 ft 21 kts 189°
2026-05-07 09:42 39.86206 4.22094 298 ft 22 kts 188°
2026-05-07 09:42 39.86047 4.22060 299 ft 24 kts 189°
2026-05-07 09:42 39.85881 4.22025 299 ft 25 kts 188°
2026-05-07 09:43 39.85699 4.21988 293 ft 29 kts 189°
2026-05-07 09:43 39.85511 4.21950 291 ft 22 kts 189°
2026-05-07 09:43 39.85345 4.21916 284 ft 26 kts 189°
2026-05-07 09:43 39.85174 4.21881 283 ft 16 kts 191°
2026-05-07 09:44 39.85129 4.21794 291 ft 11 kts 278°
2026-05-07 09:44 39.85141 4.21691 288 ft 11 kts 279°
2026-05-07 09:44 39.85215 4.21642 288 ft 24 kts
2026-05-07 09:44 39.85670 4.21745 296 ft 108 kts
2026-05-07 09:45 39.86653 4.21947 438 ft 166 kts 12°
2026-05-07 09:45 39.87821 4.22208 1364 ft 171 kts 14°
2026-05-07 09:45 39.89056 4.22479 2298 ft 190 kts 15°
2026-05-07 09:45 39.90512 4.22782 2597 ft 234 kts 13°
2026-05-07 09:46 39.92223 4.23124 3358 ft 248 kts 13°
2026-05-07 09:46 39.93362 4.23351 4136 ft 254 kts 13°
2026-05-07 09:46 39.95198 4.23466 4980 ft 274 kts 353°
2026-05-07 09:46 39.97614 4.22430 6474 ft 281 kts 341°
2026-05-07 09:47 39.98877 4.21845 7065 ft 289 kts 342°
2026-05-07 09:47 40.00780 4.20982 8047 ft 291 kts 341°
2026-05-07 09:47 40.02692 4.20124 9259 ft 291 kts 340°
2026-05-07 09:47 40.04621 4.19269 10293 ft 293 kts 339°
2026-05-07 09:48 40.06590 4.18400 10901 ft 311 kts 339°
2026-05-07 09:48 40.08718 4.17467 11356 ft 331 kts 339°
2026-05-07 09:48 40.10966 4.16480 11925 ft 346 kts 339°
2026-05-07 09:48 40.13263 4.15473 12660 ft 353 kts 340°
2026-05-07 09:49 40.15568 4.14458 13601 ft 355 kts 338°
2026-05-07 09:49 40.17937 4.13412 14311 ft 361 kts 338°
2026-05-07 09:49 40.20342 4.12351 15040 ft 366 kts 339°
2026-05-07 09:49 40.22785 4.11271 15762 ft 371 kts 339°
2026-05-07 09:50 40.25222 4.10193 16469 ft 375 kts 339°
2026-05-07 09:50 40.27693 4.09100 17156 ft 379 kts 338°
2026-05-07 09:50 40.30220 4.07980 17841 ft 383 kts 338°
2026-05-07 09:50 40.32757 4.06855 18489 ft 387 kts 338°
2026-05-07 09:51 40.35323 4.05715 19067 ft 391 kts 338°
2026-05-07 09:51 40.37881 4.04578 19660 ft 394 kts 337°
2026-05-07 09:51 40.40499 4.03415 20246 ft 397 kts 337°
2026-05-07 09:51 40.43118 4.02250 20827 ft 401 kts 336°
2026-05-07 09:52 40.45786 4.01062 21418 ft 403 kts 336°
2026-05-07 09:52 40.48434 3.99882 22002 ft 406 kts 335°
2026-05-07 09:52 40.51182 3.98819 22573 ft 412 kts 339°
2026-05-07 09:52 40.53936 3.97865 23135 ft 414 kts 339°
2026-05-07 09:53 40.56747 3.96870 23669 ft 418 kts 338°
2026-05-07 09:53 40.59565 3.95862 24108 ft 421 kts 338°
2026-05-07 09:53 40.62375 3.94854 24542 ft 424 kts 338°
2026-05-07 09:53 40.65238 3.93825 24970 ft 427 kts 338°
2026-05-07 09:54 40.68124 3.92786 25401 ft 430 kts 338°
2026-05-07 09:54 40.70988 3.91754 25809 ft 433 kts 338°
2026-05-07 09:54 40.73933 3.90692 26221 ft 436 kts 338°
2026-05-07 09:54 40.76846 3.89640 26621 ft 439 kts 338°
2026-05-07 09:55 40.79831 3.88561 27025 ft 442 kts 338°
2026-05-07 09:55 40.82736 3.87397 27395 ft 439 kts 330°
2026-05-07 09:55 40.85348 3.85407 27741 ft 428 kts 314°
2026-05-07 09:55 40.87401 3.82597 28072 ft 422 kts 304°
2026-05-07 09:56 40.89443 3.79783 28404 ft 430 kts 308°
2026-05-07 09:56 40.91567 3.76991 28762 ft 433 kts 309°
2026-05-07 09:56 40.93707 3.74203 29125 ft 436 kts 309°
2026-05-07 09:56 40.95893 3.71368 29489 ft 439 kts 309°
2026-05-07 09:57 40.98063 3.68554 29848 ft 441 kts 309°
2026-05-07 09:57 41.00270 3.65694 30178 ft 444 kts 309°
2026-05-07 09:57 41.02481 3.62824 30486 ft 446 kts 309°
2026-05-07 09:57 41.04683 3.59963 30796 ft 448 kts 309°
2026-05-07 09:58 41.06923 3.57050 31105 ft 450 kts 309°
2026-05-07 09:58 41.09147 3.54155 31434 ft 452 kts 309°
2026-05-07 09:58 41.11411 3.51204 31796 ft 452 kts 309°
2026-05-07 09:58 41.13630 3.48308 32233 ft 450 kts 309°
2026-05-07 09:59 41.15877 3.45371 32648 ft 449 kts 309°
2026-05-07 09:59 41.18078 3.42493 33061 ft 448 kts 309°
2026-05-07 09:59 41.20292 3.39593 33469 ft 447 kts 309°
2026-05-07 09:59 41.22512 3.36683 33881 ft 446 kts 309°
2026-05-07 10:00 41.24702 3.33810 34247 ft 445 kts 309°
2026-05-07 10:00 41.26914 3.30907 34577 ft 444 kts 308°
2026-05-07 10:00 41.29083 3.28056 34903 ft 443 kts 308°
2026-05-07 10:00 41.31292 3.25150 35244 ft 443 kts 309°
2026-05-07 10:01 41.33483 3.22266 35554 ft 442 kts 309°
2026-05-07 10:01 41.35653 3.19404 35861 ft 441 kts 309°
2026-05-07 10:01 41.37837 3.16524 36165 ft 441 kts 308°
2026-05-07 10:01 41.40016 3.13645 36467 ft 440 kts 308°
2026-05-07 10:02 41.42169 3.10798 36746 ft 439 kts 308°
2026-05-07 10:02 41.44347 3.07916 36997 ft 439 kts 308°
2026-05-07 10:02 41.46493 3.05075 37065 ft 440 kts 309°
2026-05-07 10:03 41.50838 2.99312 37030 ft 439 kts 308°
2026-05-07 10:03 41.55161 2.93569 37033 ft 440 kts 309°
2026-05-07 10:04 41.59490 2.87805 37025 ft 440 kts 309°
2026-05-07 10:04 41.63810 2.82041 37023 ft 440 kts 309°
2026-05-07 10:05 41.68157 2.76231 37022 ft 440 kts 309°
2026-05-07 10:05 41.72473 2.70449 37019 ft 440 kts 309°
2026-05-07 10:06 41.76801 2.64639 37030 ft 442 kts 309°
2026-05-07 10:06 41.81139 2.58806 37018 ft 443 kts 309°
2026-05-07 10:07 41.85499 2.52930 37015 ft 443 kts 309°
2026-05-07 10:07 41.89824 2.47090 37009 ft 443 kts 309°
2026-05-07 10:08 41.94153 2.41231 37007 ft 443 kts 309°
2026-05-07 10:08 41.98500 2.35338 37010 ft 443 kts 309°
2026-05-07 10:09 42.02830 2.29453 36997 ft 443 kts 309°
2026-05-07 10:09 42.07178 2.23533 36983 ft 444 kts 309°
2026-05-07 10:10 42.11507 2.17626 36983 ft 445 kts 309°
2026-05-07 10:10 42.15843 2.11699 36980 ft 445 kts 309°
2026-05-07 10:11 42.20176 2.05762 36991 ft 445 kts 309°
2026-05-07 10:11 42.24513 1.99808 36982 ft 445 kts 309°
2026-05-07 10:12 42.28854 1.93836 36986 ft 445 kts 309°
2026-05-07 10:12 42.33177 1.87877 36982 ft 445 kts 309°
2026-05-07 10:13 42.37522 1.81872 36998 ft 446 kts 309°
2026-05-07 10:13 42.41853 1.75877 37003 ft 446 kts 309°
2026-05-07 10:14 42.46166 1.69893 37015 ft 446 kts 309°
2026-05-07 10:14 42.50486 1.63887 37009 ft 444 kts 309°
2026-05-07 10:15 42.54807 1.57867 37001 ft 446 kts 309°
2026-05-07 10:15 42.59114 1.51854 37017 ft 446 kts 309°
2026-05-07 10:15 42.61434 1.49058 36997 ft 452 kts 323°
2026-05-07 10:16 42.64264 1.47091 37006 ft 459 kts 335°
2026-05-07 10:16 42.70186 1.43846 36999 ft 461 kts 334°
2026-05-07 10:17 42.76124 1.40576 37009 ft 461 kts 334°
2026-05-07 10:17 42.82062 1.37306 36993 ft 461 kts 334°
2026-05-07 10:18 42.88042 1.34005 37025 ft 462 kts 334°
2026-05-07 10:18 42.93956 1.30735 37014 ft 461 kts 334°
2026-05-07 10:19 42.99923 1.27429 37020 ft 461 kts 334°
2026-05-07 10:19 43.05849 1.24138 37012 ft 460 kts 334°
2026-05-07 10:20 43.11774 1.20842 37021 ft 460 kts 334°
2026-05-07 10:20 43.17681 1.17547 37020 ft 461 kts 334°
2026-05-07 10:21 43.23623 1.14227 37046 ft 460 kts 334°
2026-05-07 10:21 43.29571 1.10896 37021 ft 460 kts 334°
2026-05-07 10:22 43.35455 1.07594 37025 ft 460 kts 334°
2026-05-07 10:22 43.41403 1.04249 37024 ft 460 kts 334°
2026-05-07 10:23 43.47290 1.00931 37025 ft 459 kts 334°
2026-05-07 10:23 43.53182 0.97603 37030 ft 459 kts 334°
2026-05-07 10:24 43.59087 0.94262 37021 ft 459 kts 334°
2026-05-07 10:24 43.64995 0.90911 37029 ft 459 kts 334°
2026-05-07 10:25 43.70887 0.87562 37017 ft 458 kts 334°
2026-05-07 10:25 43.76770 0.84211 37018 ft 458 kts 334°
2026-05-07 10:26 43.82669 0.80844 37018 ft 458 kts 334°
2026-05-07 10:26 43.88564 0.77473 37017 ft 458 kts 333°
2026-05-07 10:27 43.94463 0.74092 37019 ft 459 kts 334°
2026-05-07 10:27 44.00344 0.70715 37013 ft 459 kts 334°
2026-05-07 10:28 44.06252 0.67410 37023 ft 459 kts 334°
2026-05-07 10:28 44.12165 0.64124 37019 ft 458 kts 334°
2026-05-07 10:29 44.18085 0.60823 37015 ft 459 kts 334°
2026-05-07 10:29 44.24020 0.57507 37032 ft 459 kts 334°
2026-05-07 10:30 44.32876 0.52546 37014 ft 458 kts 334°
2026-05-07 10:30 44.38770 0.49234 37015 ft 458 kts 334°
2026-05-07 10:31 44.44692 0.45900 37031 ft 458 kts 334°
2026-05-07 10:31 44.50576 0.42581 37027 ft 457 kts 334°
2026-05-07 10:32 44.56500 0.39231 37037 ft 457 kts 334°
2026-05-07 10:32 44.62369 0.35905 37051 ft 458 kts 334°
2026-05-07 10:33 44.68281 0.32547 37035 ft 458 kts 334°
2026-05-07 10:33 44.74193 0.29182 37035 ft 458 kts 334°
2026-05-07 10:34 44.80099 0.25813 37043 ft 458 kts 334°
2026-05-07 10:34 44.86013 0.22432 37031 ft 458 kts 334°
2026-05-07 10:35 44.91900 0.19060 37025 ft 458 kts 334°
2026-05-07 10:35 44.96834 0.16226 37033 ft 458 kts 333°
2026-05-07 10:36 45.02311 0.11801 37012 ft 454 kts 324°
2026-05-07 10:36 45.07682 0.07144 37027 ft 455 kts 324°
2026-05-07 10:37 45.13083 0.02439 37019 ft 454 kts 324°
2026-05-07 10:37 45.18429 -0.02229 37012 ft 455 kts 324°
2026-05-07 10:38 45.23805 -0.06936 37013 ft 455 kts 324°
2026-05-07 10:38 45.29199 -0.11667 37011 ft 455 kts 324°
2026-05-07 10:39 45.34568 -0.16388 37012 ft 455 kts 324°
2026-05-07 10:39 45.39957 -0.21137 37021 ft 455 kts 324°
2026-05-07 10:40 45.45333 -0.25886 37013 ft 455 kts 324°
2026-05-07 10:40 45.50701 -0.30639 37018 ft 455 kts 324°
2026-05-07 10:41 45.56073 -0.35404 37018 ft 455 kts 324°
2026-05-07 10:41 45.61436 -0.40174 37023 ft 455 kts 324°
2026-05-07 10:42 45.66790 -0.44947 37020 ft 455 kts 324°
2026-05-07 10:42 45.72152 -0.49736 37007 ft 455 kts 324°
2026-05-07 10:43 45.77514 -0.54538 37011 ft 455 kts 324°
2026-05-07 10:43 45.82876 -0.59351 37005 ft 454 kts 324°
2026-05-07 10:44 45.88224 -0.64161 37006 ft 454 kts 324°
2026-05-07 10:44 45.93564 -0.68976 36992 ft 454 kts 324°
2026-05-07 10:45 45.98912 -0.73809 37004 ft 455 kts 324°
2026-05-07 10:45 46.04254 -0.78648 37004 ft 454 kts 324°
2026-05-07 10:46 46.09642 -0.83540 36996 ft 455 kts 324°
2026-05-07 10:46 46.14959 -0.88376 37012 ft 455 kts 324°
2026-05-07 10:47 46.20314 -0.93261 37011 ft 455 kts 324°
2026-05-07 10:47 46.25318 -0.98809 37027 ft 453 kts 319°
2026-05-07 10:48 46.30231 -1.04480 37019 ft 453 kts 318°
2026-05-07 10:48 46.35142 -1.10176 37019 ft 453 kts 318°
2026-05-07 10:49 46.40045 -1.15874 37017 ft 453 kts 318°
2026-05-07 10:49 46.44943 -1.21583 37018 ft 453 kts 318°
2026-05-07 10:50 46.49876 -1.27344 37017 ft 454 kts 318°
2026-05-07 10:50 46.54786 -1.33093 37017 ft 454 kts 318°
2026-05-07 10:51 46.59711 -1.38760 37011 ft 455 kts 325°
2026-05-07 10:51 46.65387 -1.42924 36993 ft 458 kts 331°
2026-05-07 10:52 46.71104 -1.47019 37023 ft 459 kts 331°
2026-05-07 10:52 46.76845 -1.51101 37021 ft 458 kts 331°
2026-05-07 10:53 46.82555 -1.55167 37012 ft 458 kts 331°
2026-05-07 10:53 46.88261 -1.59239 37012 ft 458 kts 331°
2026-05-07 10:54 46.93978 -1.63330 37009 ft 458 kts 331°
2026-05-07 10:54 46.99713 -1.67443 37006 ft 459 kts 331°
2026-05-07 10:55 47.05432 -1.71555 37001 ft 459 kts 331°
2026-05-07 10:55 47.11159 -1.75682 37020 ft 459 kts 331°
2026-05-07 10:56 47.16895 -1.79825 37025 ft 459 kts 331°
2026-05-07 10:56 47.22627 -1.83976 37017 ft 459 kts 331°
2026-05-07 10:57 47.28316 -1.88105 37013 ft 459 kts 331°
2026-05-07 10:57 47.33966 -1.92422 36993 ft 455 kts 321°
2026-05-07 10:58 47.36286 -1.95555 37021 ft 448 kts 309°
2026-05-07 10:58 47.38371 -1.98945 37003 ft 452 kts 310°
2026-05-07 10:58 47.42552 -2.05850 37026 ft 451 kts 309°
2026-05-07 10:59 47.46695 -2.12843 37023 ft 452 kts 308°
2026-05-07 10:59 47.50798 -2.19809 37013 ft 452 kts 308°
2026-05-07 11:00 47.54938 -2.26859 37017 ft 452 kts 308°
2026-05-07 11:00 47.59057 -2.33891 37014 ft 452 kts 308°
2026-05-07 11:01 47.63174 -2.40939 37016 ft 452 kts 308°
2026-05-07 11:01 47.67344 -2.47931 37000 ft 454 kts 316°
2026-05-07 11:02 47.69910 -2.50608 37000 ft 456 kts 332°
2026-05-07 11:02 47.72832 -2.52531 37035 ft 460 kts 334°
2026-05-07 11:02 47.78731 -2.56231 37035 ft 462 kts 335°
2026-05-07 11:03 47.84669 -2.59853 37005 ft 462 kts 335°
2026-05-07 11:03 47.90625 -2.63470 37023 ft 462 kts 335°
2026-05-07 11:04 47.96577 -2.67093 36999 ft 462 kts 335°
2026-05-07 11:04 48.02535 -2.70728 37015 ft 462 kts 335°
2026-05-07 11:05 48.08471 -2.74359 37012 ft 462 kts 335°
2026-05-07 11:05 48.14371 -2.77977 37008 ft 461 kts 335°
2026-05-07 11:06 48.20320 -2.81633 37011 ft 461 kts 335°
2026-05-07 11:06 48.26276 -2.85304 37009 ft 461 kts 335°
2026-05-07 11:07 48.32197 -2.88963 37007 ft 461 kts 335°
2026-05-07 11:07 48.38126 -2.92635 37011 ft 461 kts 335°
2026-05-07 11:08 48.44054 -2.96315 37004 ft 461 kts 335°
2026-05-07 11:08 48.49969 -2.99998 37007 ft 461 kts 335°
2026-05-07 11:09 48.55882 -3.03688 37033 ft 461 kts 335°
2026-05-07 11:09 48.61820 -3.07404 37022 ft 462 kts 335°
2026-05-07 11:10 48.67774 -3.11139 37019 ft 462 kts 335°
2026-05-07 11:10 48.73710 -3.14872 37017 ft 462 kts 335°
2026-05-07 11:11 48.79611 -3.18593 37032 ft 462 kts 335°
2026-05-07 11:11 48.85545 -3.22344 37016 ft 461 kts 335°
2026-05-07 11:12 48.91472 -3.26101 37017 ft 462 kts 335°
2026-05-07 11:12 48.97370 -3.29848 37022 ft 462 kts 335°
2026-05-07 11:13 49.03295 -3.33623 37028 ft 462 kts 335°
2026-05-07 11:13 49.09193 -3.37389 37022 ft 461 kts 335°
2026-05-07 11:14 49.15142 -3.41199 37021 ft 461 kts 335°
2026-05-07 11:14 49.21045 -3.44989 37024 ft 461 kts 335°
2026-05-07 11:15 49.26929 -3.48776 37033 ft 461 kts 335°
2026-05-07 11:15 49.32836 -3.52588 36565 ft 455 kts 335°
2026-05-07 11:16 49.35743 -3.54468 35800 ft 457 kts 335°
2026-05-07 11:16 49.38650 -3.56351 35145 ft 456 kts 335°
2026-05-07 11:16 49.41588 -3.58257 34466 ft 456 kts 335°
2026-05-07 11:16 49.44486 -3.60137 33732 ft 457 kts 335°
2026-05-07 11:17 49.47429 -3.62049 32881 ft 459 kts 335°
2026-05-07 11:17 49.50375 -3.63965 32040 ft 460 kts 335°
2026-05-07 11:17 49.53325 -3.65887 31311 ft 460 kts 335°
2026-05-07 11:17 49.56258 -3.67800 30836 ft 453 kts 335°
2026-05-07 11:18 49.59116 -3.69666 30523 ft 444 kts 335°
2026-05-07 11:18 49.61946 -3.71516 30221 ft 435 kts 335°
2026-05-07 11:18 49.64683 -3.73309 29882 ft 430 kts 335°
2026-05-07 11:18 49.67485 -3.75092 29544 ft 440 kts 340°
2026-05-07 11:19 49.70503 -3.75964 29458 ft 445 kts 357°
2026-05-07 11:19 49.73626 -3.75777 29480 ft 450 kts
2026-05-07 11:19 49.79850 -3.75144 29482 ft 452 kts
2026-05-07 11:20 49.86035 -3.74404 29483 ft 452 kts
2026-05-07 11:20 49.91217 -3.73762 29486 ft 452 kts
2026-05-07 11:21 49.97450 -3.72985 29480 ft 451 kts
2026-05-07 11:21 50.03708 -3.72202 29482 ft 451 kts
2026-05-07 11:22 50.09950 -3.71419 29482 ft 451 kts
2026-05-07 11:22 50.16204 -3.70634 29489 ft 450 kts
2026-05-07 11:23 50.21403 -3.69978 29484 ft 450 kts
2026-05-07 11:23 50.27642 -3.69190 29485 ft 450 kts
2026-05-07 11:24 50.34890 -3.68272 29482 ft 449 kts